Flag for Austria Weather past 2 weeks in Amstetten, Lower Austria, Austria

Now
59 °F

Overcast.


Feels Like: N/A
Forecast: 48 / 59 °F
Wind: N/A

Location: Linz / Hoersching-Flughafen

Current Time: May 26, 2015 at 4:01:40 PM

Latest Report: May 26, 2015 at 3:00 PM


Visibility: 6 mi

Pressure: 29.93 "Hg

Humidity: 72%

Dew point: 50 °F

Location of AmstettenLocation

Historic Weather in Amstetten — Graph

°F

Amstetten temperature yesterday

Maximum temperature yesterday: 65 °F (at 4:00 PM)
Minimum temperature yesterday: 51 °F (at 6:00 AM)
Average temperature yesterday: 56 °F

Past Weeks' High & Low Weather Summary

 TemperatureHumidityPressure
High76 °F (May 12, 5:00 PM)97% (May 18, 3:00 AM)30.30 "Hg (May 18, 3:00 AM)
Low45 °F (May 21, 6:00 AM)26% (May 11, 3:00 PM)29.71 "Hg (May 18, 8:00 PM)
Average57 °F79%30.04 "Hg
* Reported May 11 2:00 PM — May 26 2:00 PM, Amstetten, Weather by CustomWeather, © 2015

Note: Actual official high and low records may vary slightly from our data, if they occured in-between our weather recording intervals... More about our weather records

Advertising

Amstetten weather history for previous 24 hours

 ConditionsComfort  
Time TempWeatherWind HumidityBarometerVisibility
2:00 PM
Tue, May 26
59 °FOvercast.N/A76%29.93 "Hg22 mi
1:00 PM58 °FOvercast.3 mph80%29.93 "Hg14 mi
12:00 PM56 °FOvercast.5 mph85%29.93 "Hg7 mi
11:00 AM57 °FOvercast.5 mph83%29.92 "Hg7 mi
10:00 AM56 °FOvercast.3 mph85%29.90 "Hg8 mi
9:00 AM55 °FOvercast.5 mph90%29.90 "Hg6 mi
8:00 AM54 °FRain showers. Overcast.5 mph91%29.89 "Hg5 mi
7:00 AM53 °FRain showers. Overcast.5 mph92%29.88 "Hg6 mi
6:00 AM53 °FRain showers. Overcast.5 mph91%29.88 "Hg6 mi
5:00 AM54 °FOvercast.6 mph87%29.88 "Hg11 mi
4:00 AM54 °FOvercast.3 mph88%29.88 "Hg15 mi
3:00 AM54 °FLight rain. Overcast.5 mph87%29.87 "Hg5 mi
2:00 AM54 °FDrizzle. Overcast.6 mph88%29.87 "Hg14 mi
1:00 AM53 °FOvercast.5 mph89%29.86 "Hg9 mi
12:00 AM54 °FOvercast.3 mph89%29.88 "Hg11 mi
11:00 PM
Mon, May 25
54 °FOvercast.5 mph91%29.89 "Hg8 mi
10:00 PM53 °FOvercast.N/A89%29.88 "Hg14 mi
9:00 PM56 °FPassing clouds.N/A82%29.87 "Hg28 mi
8:00 PM57 °FOvercast.N/A78%29.86 "Hg28 mi
7:00 PM57 °FOvercast.3 mph78%29.86 "Hg25 mi
6:00 PM58 °FRain showers. Overcast.8 mph68%29.85 "Hg22 mi
5:00 PM65 °FOvercast.5 mph59%29.85 "Hg17 mi
4:00 PM65 °FOvercast.3 mph59%29.88 "Hg15 mi
Weather by CustomWeather, © 2015

See weather overviewHow to use our weather pages